{"data":{"norad_id":66935,"intl_designator":"2025-286L","name":"STARLINK-36127","alt_names":[],"object_type":"PAYLOAD","status":"ACTIVE","operator":null,"country":"US","launch_date":"2025-12-07","launch_site_code":"AFWTR","launch_vehicle":null,"mission":null,"orbit_class":"UNKNOWN","rcs_meters":null,"size_class":null,"mass_kg":null,"dimensions":null,"purposes":["comms"],"wikipedia_slug":null,"has_3d_model":false,"image_url":null,"decayed_at":null,"tle_current":{"epoch":"2026-09-20T03:05:12.624576Z","epoch_age_seconds":115958,"freshness":"FRESH","line1":"1 66935U 25286L   26263.12861834  .00020073  00000+0  60363-3 0  9996","line2":"2 66935  53.1590 171.2294 0001470  86.3737 273.7433 15.34400455 45241","mean_motion":15.34400455,"eccentricity":0.000147,"inclination_deg":53.159,"raan_deg":171.2294,"arg_perigee_deg":86.3737,"mean_anomaly_deg":273.7433,"bstar":0.00060363,"rev_number":4524,"period_min":93.8477302524,"perigee_km":461.69628453504,"apogee_km":463.70749116807,"semimajor_km":6840.8388878516,"source":"CELESTRAK","updated_at":"2026-09-21T09:00:36.057727Z"}}}